Home > Weather > Brazzaville > Past weeks

Flag for Congo Past Weather in Brazzaville, Congo — Yesterday and Last 2 Weeks

Now
68 °F

Clear.


Feels Like: 68 °F
Forecast: 66 / 90 °F
Wind: 1 mph from North

Location: Brazzaville / Maya-Maya

Current Time: Jul 30, 2016 at 3:05:40 AM

Latest Report: Jul 30, 2016 at 2:00 AM


Visibility: 4 mi

Pressure: 29.95 "Hg

Humidity: 78%

Dew Point: 61 °F

Location of BrazzavilleLocation

Past Weather in Brazzaville — Graph

°F

Brazzaville Temperature Yesterday

Maximum temperature yesterday: 82 °F (at 3:00 PM)
Minimum temperature yesterday: 64 °F (at 5:00 AM)
Average temperature yesterday: 72 °F

High & Low Weather Summary for the Past Weeks

 TemperatureHumidityPressure
High88 °F (Jul 15, 4:00 PM)100% (Jul 17, 6:00 AM)30.07 "Hg (Jul 17, 6:00 AM)
Low63 °F (Jul 25, 5:00 AM)43% (Jul 20, 4:00 PM)29.80 "Hg (Jul 15, 4:00 PM)
Average73 °F76%29.97 "Hg
* Reported Jul 15 2:00 AM — Jul 30 2:00 AM, Brazzaville, Weather by CustomWeather, © 2016

Note: Actual official high and low records may vary slightly from our data, if they occured in-between our weather recording intervals... More about our weather records

Advertising

Brazzaville Weather History for the Previous 24 Hours

Scroll right to see more
 ConditionsComfort  
Time TempWeatherWind HumidityBarometerVisibility
2:00 AM
Sat, Jul 30
68 °FClear.1 mph78%29.95 "Hg4 mi
1:00 AM70 °FClear.5 mph73%29.98 "Hg4 mi
12:00 AM72 °FClear.7 mph69%29.98 "Hg4 mi
11:00 PM
Fri, Jul 29
73 °FClear.5 mph65%30.01 "Hg4 mi
10:00 PM73 °FClear.5 mph69%29.98 "Hg4 mi
9:00 PM75 °FClear.No wind61%29.98 "Hg4 mi
8:00 PM75 °FClear.3 mph61%29.95 "Hg4 mi
7:00 PM77 °FClear.2 mph61%29.92 "Hg5 mi
6:00 PM81 °FClear.1 mph51%29.89 "Hg5 mi
5:00 PM82 °FPassing clouds.5 mph48%29.86 "HgN/A
4:00 PM82 °FPassing clouds.6 mph48%29.89 "HgN/A
3:00 PM82 °FPassing clouds.8 mph48%29.89 "HgN/A
2:00 PM81 °FPassing clouds.7 mph51%29.92 "HgN/A
1:00 PM79 °FPassing clouds.7 mph54%29.98 "HgN/A
12:00 PM75 °FScattered clouds.7 mph61%30.01 "Hg5 mi
11:00 AM72 °FMostly cloudy.9 mph73%30.04 "Hg5 mi
10:00 AM70 °FMostly cloudy.6 mph78%30.07 "Hg4 mi
9:00 AM68 °FMore clouds than sun.7 mph83%30.07 "Hg4 mi
8:55 AM68 °FMore clouds than sun.7 mph83%30.07 "Hg4 mi
8:00 AM66 °FFog.5 mph83%30.04 "Hg2 mi
7:00 AM64 °FMore clouds than sun.3 mph88%30.01 "Hg4 mi
6:00 AM64 °FMostly cloudy.No wind88%29.98 "Hg4 mi
5:00 AM64 °FClear.No wind88%29.95 "Hg4 mi
4:00 AM66 °FClear.2 mph83%29.98 "Hg4 mi
3:00 AM66 °FClear.3 mph83%29.98 "Hg4 mi
Weather by CustomWeather, © 2016

See weather overviewHow to use our weather pages